Location: Paddlesworth
(51.1000°N, 1.1333°E)
Time: 09:06:26
(UTC+00:00)

Cosmos 1812 - Pass Details

Date: 11 May 2021
Orbit: 514 x 521 km, 82.5° (Epoch: 15 June)

Event Time Altitude Azimuth Distance (km) Brightness Sun altitude
Exits shadow 20:47:23 11° 164° (SSE) 1,718 4.8 -9.9°
Maximum altitude 20:50:56 42° 94° (E) 753 3.2 -10.3°
Drops below altitude 10° 20:54:37 10° 23° (NNE) 1,771 5.7 -10.7°
Sets 20:56:50 0° 16° (NNE) 2,664 6.8 -10.9°
